{"data":{"norad_id":62325,"epoch":"2026-09-22T21:37:47.357184Z","epoch_age_seconds":104525,"freshness":"FRESH","line1":"1 62325U 24240C   26265.90124256  .00000039  00000+0  56977-4 0  9999","line2":"2 62325  86.4962 310.1731 0001623  91.6607 268.4713 13.24412995 85578","mean_motion":13.24412995,"eccentricity":0.0001623,"inclination_deg":86.4962,"raan_deg":310.1731,"arg_perigee_deg":91.6607,"mean_anomaly_deg":268.4713,"bstar":5.6977e-5,"rev_number":8557,"period_min":108.72741398917,"perigee_km":1166.6860857288,"apogee_km":1169.1355328477,"semimajor_km":7546.0478092883,"source":"CELESTRAK","updated_at":"2026-09-23T09:00:21.353948Z"}}